Tracking 19792 objects as of 16-Jul-2019
HD Live streaming from Space Station
objects crossing your sky now

CZ-3A R/B


CZ-3A R/B is no longer on orbit


NORAD ID: 37764
Int'l Code: 2011-038B
Perigee: N/A
Apogee: N/A
Inclination: N/A
Period: N/A
Semi major axis: N/A
RCS: N/A
Launch date: July 26, 2011
Source: People's Republic of China (PRC)
Launch site: Xichang Space Center, China (XSC)
Decay date: 2012-03-03

Note: This is a ROCKET BODY
aabbcc
Your satellite tracking list
Your tracking list is empty




NASA's NSSDC Master Catalog

Two Line Element Set (TLE):
1 37764U 11038B   12063.04297503  .99999999  36784-5  23147-2 0  9996
2 37764 054.3374 144.4978 0558038 230.2861 190.8473 15.26674383  5498
Source of the keplerian elements: AFSPC